Congonhas Airport

SBSP · São Paulo, Brasilien

METAR-Geschichte SBSP · Flughafen São Paulo-Congonhas

Unten siehst du die METARs der letzten paar Tage. Wähle ein Jahr, um ältere METARs ab dem Jahr 2007 zu durchsuchen.

29. Februar 2024

Uhrzeit Code Wetter Temp. Sichtweite Wolkendecke Wind METAR/SPECI
15:00
V
30 °C 10 km+ - 210° 210° 7 kt METAR SBSP 291800Z 21007KT 9999 SCT035 30/18 Q1016
14:00
V
30 °C 10 km+ - 230° 230° 6 kt METAR SBSP 291700Z 23006KT 170V280 9999 SCT035 30/17 Q1017
13:00
V
29 °C 10 km+ - 200° 200° 5 kt METAR SBSP 291600Z 20005KT 150V280 9999 FEW025 29/18 Q1017
12:00
V
28 °C 10 km+ - Var Var 5 kt METAR SBSP 291500Z VRB05KT 9999 FEW020 28/21 Q1018
11:00
M
24 °C 10 km+ 2.000 ft 220° 220° 7 kt METAR SBSP 291400Z 22007KT 180V270 9999 SCT015 BKN020 24/21 Q1020 RESHRA
10:39
M
24 °C 8 km 2.500 ft 220° 220° 9 kt METAR SBSP 291339Z 22009KT 190V270 8000 3000NW SHRA SCT015 BKN025 24/20 Q1020
10:00
M
25 °C 10 km+ 3.000 ft 220° 220° 6 kt METAR SBSP 291300Z 22006KT 180V280 9999 FEW015 BKN030 25/19 Q1019
09:00
V
25 °C 10 km+ - Var Var 3 kt METAR SBSP 291200Z VRB03KT 9999 FEW015 SCT030 25/20 Q1019
08:00
V
23 °C 10 km+ - 160° 160° 4 kt METAR SBSP 291100Z 16004KT 090V210 9999 FEW008 SCT030 23/21 Q1019
07:00
M
23 °C 10 km+ 3.000 ft 230° 230° 4 kt METAR SBSP 291000Z 23004KT 190V280 9999 FEW006 BKN030 23/21 Q1018
06:00
V
22 °C 10 km+ - 360° 360° 0 kt METAR SBSP 290900Z 00000KT 9999 FEW006 SCT083 22/21 Q1017
05:02
V
23 °C 10 km+ 4.800 ft Var Var 3 kt METAR SBSP 290802Z AUTO VRB03KT 9999 SCT007 BKN048 23/21 Q1017
05:00
M
23 °C 10 km+ 1.100 ft 240° 240° 3 kt METAR SBSP 290800Z AUTO 24003KT 200V270 9999 SCT006 BKN011 23/21 Q1017
04:30
M
23 °C 10 km+ 1.100 ft 230° 230° 4 kt METAR SBSP 290730Z AUTO 23004KT 200V260 9999 SCT008 BKN011 23/21 Q1017
04:11
I
23 °C 10 km+ 800 ft 200° 200° 3 kt METAR SBSP 290711Z AUTO 20003KT 9999 FEW006 BKN008 23/21 Q1017
04:07
M
23 °C 10 km+ 1.100 ft 200° 200° 4 kt METAR SBSP 290707Z AUTO 20004KT 9999 FEW006 SCT008 BKN011 23/21 Q1017
04:00
I
23 °C 10 km+ 900 ft 200° 200° 3 kt METAR SBSP 290700Z AUTO 20003KT 9999 SCT006 BKN009 23/21 Q1017
03:26
I
23 °C 10 km+ 800 ft Var Var 1 kt METAR SBSP 290626Z AUTO VRB01KT 9999 FEW006 BKN008 23/21 Q1017
03:00
V
23 °C 10 km+ - Var Var 2 kt METAR SBSP 290600Z AUTO VRB02KT 9999 SCT011 23/21 Q1017
02:32
M
23 °C 10 km+ 1.200 ft 190° 190° 3 kt METAR SBSP 290532Z AUTO 19003KT 9999 FEW010 BKN012 23/21 Q1017
02:00
V
23 °C 10 km+ - 360° 360° 0 kt METAR SBSP 290500Z AUTO 00000KT 9999 FEW040 23/21 Q1017
01:00
V
23 °C 10 km+ - 190° 190° 3 kt METAR SBSP 290400Z AUTO 19003KT 9999 SCT044 23/21 Q1017
00:00
V
23 °C 10 km+ - 360° 360° 0 kt METAR SBSP 290300Z AUTO 00000KT CAVOK 23/21 Q1017

28. Februar 2024

Uhrzeit Code Wetter Temp. Sichtweite Wolkendecke Wind METAR/SPECI
23:01
V
23 °C 10 km+ - 140° 140° 4 kt METAR SBSP 290201Z 14004KT 9999 SCT015 23/21 Q1018
23:00
V
23 °C 10 km+ - 150° 150° 4 kt METAR SBSP 290200Z 15004KT 9999 SCT015 SCT046 23/21 Q1018
22:00
M
23 °C 10 km+ 1.500 ft 120° 120° 4 kt METAR SBSP 290100Z 12004KT 080V140 9999 FEW011 BKN015 23/21 Q1018
21:00
M
23 °C 10 km+ 1.500 ft 140° 140° 3 kt METAR SBSP 290000Z 14003KT 9999 SCT012 BKN015 23/21 Q1018
20:00
V
23 °C 10 km+ - 150° 150° 6 kt METAR SBSP 282300Z 15006KT 9999 SCT012 SCT100 23/21 Q1017
19:24
M
24 °C 10 km+ 1.000 ft 170° 170° 7 kt METAR SBSP 282224Z 17007KT 9999 BKN010 SCT020 24/21 Q1016
19:00
V
24 °C 10 km+ - 180° 180° 8 kt METAR SBSP 282200Z 18008KT 9999 SCT009 SCT013 24/22 Q1016
18:00
V
24 °C 10 km+ 3.500 ft 190° 190° 6 kt METAR SBSP 282100Z 19006KT 150V230 9999 BKN035 FEW040TCU SCT100 24/22 Q1015 RETSRA
17:27
M
24 °C 10 km+ 2.500 ft Var Var 2 kt METAR SBSP 282027Z VRB02KT 9999 -RA VCTS FEW020 BKN025 FEW040CB 24/23 Q1016 RETSRA
17:02
I
25 °C 3 km 2.500 ft Var Var 4 kt METAR SBSP 282002Z VRB04KT 3000 1000NE R17/P2000N R35/P2000N TSRA FEW020 BKN025 FEW040CB 25/23 Q1016
17:00
M
24 °C 6 km 2.500 ft Var Var 3 kt METAR SBSP 282000Z VRB03KT 6000 -TSRA FEW020 BKN025 FEW040CB 24/23 Q1016 RERA
16:28
V
25 °C 10 km+ 3.600 ft 070° 070° 6 kt METAR SBSP 281928Z 07006KT 020V110 9999 3000SW RA VCTS FEW025 BKN036 FEW043CB 25/22 Q1016 RETS
16:00
V
25 °C 10 km+ 3.600 ft 110° 110° 9 kt METAR SBSP 281900Z 11009KT 080V150 9999 TS FEW025 BKN036 FEW043CB 25/23 Q1015 RERA RESHRA WS R35
15:36
L
25 °C 1 km 3.600 ft Var Var 3 kt METAR SBSP 281836Z VRB03KT 1000 R17/P2000N R35/P2000N +TSRA FEW025 BKN036 FEW043CB 25/22 Q1016 RESHRA WS R35
15:00
L
29 °C 1 km 3.600 ft 030° 030° 12 - 30 kt METAR SBSP 281800Z 03012G30KT 190V270 1000 R17/P2000N R35/P2000N +SHRA FEW025 BKN036 FEW043TCU 29/21 Q1015 WS R17
14:00
V
31 °C 10 km+ 3.600 ft 210° 210° 10 kt METAR SBSP 281700Z 21010KT 180V240 9999 VCSH BKN036 FEW043TCU 31/20 Q1015
13:00
V
31 °C 10 km+ 3.600 ft 250° 250° 5 kt METAR SBSP 281600Z 25005KT 190V350 9999 BKN036 31/20 Q1016
12:00
V
30 °C 10 km+ 3.600 ft 200° 200° 6 kt METAR SBSP 281500Z 20006KT 9999 BKN036 30/21 Q1016
11:00
M
29 °C 10 km+ 3.000 ft 200° 200° 7 kt METAR SBSP 281400Z 20007KT 160V250 9999 BKN030 29/21 Q1017
10:00
V
29 °C 10 km+ - 260° 260° 5 kt METAR SBSP 281300Z 26005KT 160V330 9999 SCT030 29/21 Q1017
09:00
V
28 °C 10 km+ - 290° 290° 5 kt METAR SBSP 281200Z 29005KT 230V330 9999 FEW040 28/21 Q1017
08:00
V
25 °C 10 km+ - Var Var 3 kt METAR SBSP 281100Z VRB03KT CAVOK 25/20 Q1016
07:00
V
24 °C 10 km+ - 320° 320° 5 kt METAR SBSP 281000Z 32005KT 280V350 CAVOK 24/19 Q1016
06:00
V
23 °C 10 km+ - 330° 330° 4 kt METAR SBSP 280900Z 33004KT CAVOK 23/19 Q1015
05:00
V
24 °C 10 km+ - 320° 320° 4 kt METAR SBSP 280800Z AUTO 32004KT CAVOK 24/19 Q1015
04:00
V
23 °C 10 km+ - 330° 330° 5 kt METAR SBSP 280700Z AUTO 33005KT CAVOK 23/19 Q1014
03:00
V
23 °C 10 km+ - 360° 360° 3 kt METAR SBSP 280600Z AUTO 36003KT CAVOK 23/19 Q1015
02:00
V
23 °C 10 km+ - Var Var 2 kt METAR SBSP 280500Z AUTO VRB02KT CAVOK 23/20 Q1016
00:50
I
24 °C 10 km+ 600 ft 210° 210° 14 kt METAR SBSP 280350Z AUTO 21014KT 180V250 9999 BKN006 BKN016 24/21 Q1017
01:16
V
23 °C 10 km+ 3.500 ft 210° 210° 8 kt METAR SBSP 280416Z AUTO 21008KT 180V240 9999 FEW007 SCT021 BKN035 23/20 Q1017
01:00
I
24 °C 10 km+ 600 ft 220° 220° 11 kt METAR SBSP 280400Z AUTO 22011KT 190V250 9999 BKN006 BKN016 24/21 Q1017
00:32
V
27 °C 10 km+ - 200° 200° 10 kt METAR SBSP 280332Z AUTO 20010KT 9999 FEW041 27/21 Q1017
00:00
V
27 °C 10 km+ - 320° 320° 3 kt METAR SBSP 280300Z AUTO 32003KT CAVOK 27/21 Q1016

27. Februar 2024

Uhrzeit Code Wetter Temp. Sichtweite Wolkendecke Wind METAR/SPECI
23:10
V
27 °C 10 km+ - 320° 320° 3 kt METAR SBSP 280210Z 32003KT CAVOK 27/21 Q1016
23:00
V
27 °C 10 km+ - 340° 340° 3 kt METAR SBSP 280200Z 34003KT CAVOK 27/20 Q1017
22:00
V
28 °C 10 km+ - 310° 310° 4 kt METAR SBSP 280100Z 31004KT 260V350 CAVOK 28/20 Q1017
21:00
V
28 °C 10 km+ - 250° 250° 4 kt METAR SBSP 280000Z 25004KT 210V290 CAVOK 28/21 Q1016
20:00
V
29 °C 10 km+ - 230° 230° 4 kt METAR SBSP 272300Z 23004KT 190V290 CAVOK 29/20 Q1015
19:00
V
30 °C 10 km+ - Var Var 4 kt METAR SBSP 272200Z VRB04KT CAVOK 30/20 Q1015
18:00
V
30 °C 10 km+ - 270° 270° 6 kt METAR SBSP 272100Z 27006KT 240V320 CAVOK 30/19 Q1014
17:00
V
31 °C 10 km+ - 300° 300° 8 kt METAR SBSP 272000Z 30008KT 230V340 9999 SCT046 31/18 Q1014
16:00
V
31 °C 10 km+ - 310° 310° 10 kt METAR SBSP 271900Z 31010KT 9999 FEW043 31/19 Q1014
15:00
V
32 °C 10 km+ - 290° 290° 10 kt METAR SBSP 271800Z 29010KT 250V350 9999 SCT046 32/19 Q1015
14:00
V
30 °C 10 km+ 4.000 ft 310° 310° 12 kt METAR SBSP 271700Z 31012KT 260V360 9999 BKN040 30/19 Q1015
13:00
V
30 °C 10 km+ - 320° 320° 11 kt METAR SBSP 271600Z 32011KT 280V010 9999 SCT040 30/20 Q1016
12:00
V
30 °C 10 km+ - 330° 330° 10 kt METAR SBSP 271500Z 33010KT 270V360 9999 SCT036 30/20 Q1017
11:00
V
29 °C 10 km+ - 340° 340° 12 kt METAR SBSP 271400Z 34012KT 9999 FEW030 29/20 Q1018
10:00
V
28 °C 10 km+ - 330° 330° 11 kt METAR SBSP 271300Z 33011KT 300V360 CAVOK 28/20 Q1018
09:00
V
26 °C 10 km+ - 360° 360° 6 kt METAR SBSP 271200Z 36006KT 310V070 CAVOK 26/20 Q1018
08:00
V
24 °C 10 km+ - 040° 040° 5 kt METAR SBSP 271100Z 04005KT 010V070 9999 FEW011 24/20 Q1018
07:00
V
23 °C 10 km+ - 040° 040° 5 kt METAR SBSP 271000Z 04005KT 010V070 9999 FEW011 23/20 Q1018
06:00
V
22 °C 10 km+ - 050° 050° 6 kt METAR SBSP 270900Z 05006KT 020V090 9999 FEW011 22/20 Q1017
05:00
M
23 °C 10 km+ 1.200 ft 050° 050° 5 kt METAR SBSP 270800Z AUTO 05005KT 010V090 9999 BKN012/// 23/20 Q1017
04:00
M
23 °C 10 km+ 1.300 ft 080° 080° 4 kt METAR SBSP 270700Z AUTO 08004KT 040V110 9999 OVC013 23/20 Q1017
03:01
M
22 °C 10 km+ 1.400 ft 100° 100° 4 kt METAR SBSP 270601Z AUTO 10004KT 040V140 9999 SCT011 OVC014 22/20 Q1017
03:00
M
22 °C 10 km+ 1.500 ft 100° 100° 4 kt METAR SBSP 270600Z AUTO 10004KT 040V140 9999 SCT011 OVC015 22/20 Q1017